Terminal Aerodrome Forecast
Issued by NWS

Home | Current Version | Previous Version | Text Only | Print | Product List | Glossary On
Versions: 1 2 3 4 5 6 7 8 9 10 11 12 13 14 15 16 17 18 19 20 21 22
000
FTUS45 KABQ 202300
TAFFMN
TAF
KFMN 202323Z 2100/2124 28009KT P6SM BKN250
     FM210200 02005KT P6SM BKN200
     FM210600 05006KT P6SM BKN060
     FM211900 27010G18KT P6SM SCT060 BKN150=

USA.gov is the U.S. government's official web portal to all federal, state and local government web resources and services.